Wind_Speed
37 29 27 32 34 33 31 35 40 39 37 30 16 9 11 10 7 12 20 22 16 17 26 29 29 36 41 40 37 34 32 31 28 27 30 34 37 38 36 35 36 34 33 33 32 30 29 28 28 28 30 31 31 30 30 30 30 31 32 32 32 31 30
41 37 28 30 34 34 29 34 41 36 27 28 26 14 7 8 7 7 13 19 20 18 21 26 28 32 37 38 36 34 33 32 30 29 31 33 36 37 35 34 35 35 34 33 32 30 30 29 28 27 28 30 31 31 30 30 30 31 31 31 31 31 31
35 44 36 28 32 35 31 31 35 31 23 25 29 18 7 7 5 5 7 13 20 24 23 22 26 32 38 39 35 32 33 34 33 31 31 33 35 36 36 35 36 37 36 34 33 32 31 30 29 27 27 28 30 31 31 31 30 30 31 31 31 31 31
24 37 41 33 31 35 35 32 28 29 30 28 30 26 15 7 4 4 5 5 13 27 29 23 24 30 35 37 37 33 31 34 35 32 31 33 35 37 36 34 35 38 37 35 34 33 32 30 29 28 27 28 30 31 31 31 30 31 32 32 32 32 32
18 24 36 39 36 33 38 37 28 29 34 28 24 27 25 16 5 2 3 4 9 20 25 24 23 25 29 34 36 35 31 31 33 32 30 32 33 35 34 32 33 36 36 35 35 35 35 33 31 30 28 27 28 30 32 31 31 32 33 33 33 33 32
20 22 30 37 35 31 35 38 33 33 32 25 15 14 24 29 18 8 4 5 11 17 18 19 20 21 24 27 31 34 33 30 31 32 30 28 29 30 31 30 29 31 33 33 35 37 38 36 33 30 29 27 28 30 31 32 31 31 32 33 34 34 33
25 26 27 30 30 28 29 30 33 35 32 29 22 11 17 27 25 23 17 10 19 25 17 14 16 18 20 22 26 30 31 30 30 31 31 28 26 26 26 27 26 26 28 31 34 37 38 37 33 30 29 28 28 29 31 32 32 30 29 30 32 33 33
28 29 26 22 21 21 23 25 30 34 33 33 31 21 17 19 21 24 16 12 29 35 23 18 17 15 17 20 22 26 29 29 27 27 30 30 28 25 24 26 25 23 26 30 34 36 37 37 35 32 30 29 28 29 31 32 31 29 27 27 29 32 33
16 22 21 19 19 18 20 23 24 30 34 34 31 27 21 17 22 26 14 13 33 32 20 21 20 17 18 19 22 26 29 31 30 27 28 29 30 28 24 26 26 26 28 30 31 33 34 35 35 34 31 29 29 30 31 32 31 29 27 26 27 29 31
6 11 9 7 11 12 14 18 21 26 30 30 28 26 22 18 23 29 24 26 38 29 18 20 18 16 15 13 18 24 27 30 31 29 29 30 33 32 28 28 28 28 30 29 29 31 31 31 33 34 33 30 29 30 31 31 29 28 28 28 27 27 28
15 17 11 5 8 11 11 13 20 24 25 24 23 22 26 27 24 27 31 36 40 35 30 30 26 22 20 18 19 20 22 24 23 23 25 28 34 36 33 31 30 29 30 30 30 31 29 28 30 33 34 31 29 30 30 29 28 28 29 29 29 28 28
20 24 21 14 14 16 14 12 14 20 21 21 23 26 30 30 24 25 33 36 37 40 38 35 32 32 32 32 30 25 25 25 23 24 29 29 33 39 38 35 33 29 29 30 29 30 28 26 28 33 34 32 30 30 30 29 28 28 28 28 29 29 29
20 23 22 17 16 17 15 13 13 17 20 20 27 34 33 28 26 29 33 34 36 40 39 35 33 34 33 33 32 29 29 30 30 31 33 30 34 43 43 40 36 30 28 28 27 28 26 25 27 33 35 33 31 30 31 32 31 29 27 27 27 28 28
19 20 17 13 15 18 15 12 13 16 20 22 27 32 33 33 32 31 32 35 38 38 37 37 37 35 34 32 29 26 25 28 30 30 31 32 38 46 47 43 39 33 28 27 27 27 25 23 27 33 34 33 32 31 31 32 31 30 28 27 26 26 26
16 15 13 11 14 17 13 9 13 17 20 21 22 25 29 34 35 34 35 39 41 39 39 40 40 37 34 30 26 24 24 26 27 27 30 34 38 46 49 46 43 37 31 29 29 28 24 21 25 31 33 32 31 30 31 30 30 30 29 28 26 25 25
12 12 13 13 15 16 12 9 12 12 10 11 15 21 27 32 36 39 38 37 40 42 41 41 42 40 36 31 26 24 25 25 22 22 28 32 33 39 47 49 46 41 35 31 29 26 22 21 25 30 33 33 31 29 29 29 29 29 29 29 28 26 25
10 12 11 13 15 13 9 8 7 4 8 8 11 18 24 29 33 35 33 32 38 42 41 40 40 39 37 33 29 27 25 23 18 17 23 28 29 33 43 49 47 41 35 30 27 25 23 24 27 29 31 31 29 27 28 28 28 28 29 29 29 27 26
9 8 7 12 13 9 8 9 7 8 13 13 10 9 15 23 31 34 31 30 34 35 36 37 37 38 37 35 33 30 26 21 16 16 20 25 28 29 34 43 45 40 34 29 26 25 25 26 28 29 30 29 27 26 27 27 27 28 29 29 30 29 28
11 6 6 10 7 8 14 14 10 10 14 16 14 9 14 22 28 30 27 28 30 29 29 31 33 35 35 35 34 30 26 21 16 17 18 21 26 27 28 35 41 40 33 28 28 28 28 28 28 29 29 29 27 27 25 24 25 27 28 28 29 28 29
10 7 3 6 8 15 20 17 12 11 12 15 16 12 13 19 24 25 23 24 27 26 24 26 29 30 31 33 32 29 26 21 16 17 18 21 25 26 27 30 34 35 31 28 29 30 30 29 28 28 28 28 27 25 22 21 22 24 25 25 25 26 28
6 8 5 6 13 16 20 18 14 10 8 12 16 14 10 13 19 20 20 21 23 23 22 22 23 25 27 28 29 28 26 22 18 17 19 22 26 28 29 30 30 31 30 30 31 31 30 29 28 28 28 27 26 23 21 21 22 22 22 22 23 25 26
5 8 5 5 9 9 15 18 12 7 8 12 18 16 12 12 16 16 18 20 20 21 21 20 20 22 24 25 26 26 25 22 20 18 19 22 27 30 30 31 32 32 32 32 31 30 28 28 28 28 29 28 25 23 22 22 23 23 23 22 23 23 23
7 6 4 1 4 5 14 18 9 7 12 17 20 14 12 15 18 17 18 20 20 19 19 18 19 21 22 22 22 24 23 22 21 20 20 23 27 29 30 32 34 34 33 32 30 27 27 28 29 29 29 27 25 23 23 24 24 24 22 21 20 20 21
8 8 6 0 2 4 12 15 7 8 16 19 16 8 7 16 20 20 21 21 20 20 18 16 18 19 17 14 15 19 21 20 21 22 22 24 27 29 30 33 35 34 33 32 29 27 27 29 29 30 29 27 25 24 25 26 26 24 22 20 20 19 20
6 8 7 2 3 3 9 14 9 12 21 16 9 5 6 15 21 24 25 24 22 22 21 18 18 16 14 13 11 17 21 19 20 23 24 26 29 30 32 34 34 33 32 31 28 27 29 30 30 30 29 26 25 26 27 28 27 24 22 20 19 19 19
4 6 6 4 3 4 6 11 11 16 21 14 9 4 5 11 21 26 29 29 26 25 25 23 21 21 21 20 17 20 21 18 20 23 25 27 29 31 32 33 32 31 31 31 29 28 30 32 31 30 28 27 27 28 28 28 26 23 21 19 17 17 17
2 3 4 3 2 3 3 6 9 12 17 15 10 11 10 12 21 27 30 32 31 30 29 27 25 24 25 24 23 22 20 18 20 22 25 27 29 29 30 30 29 28 30 30 29 29 32 32 31 29 28 28 28 27 26 25 23 21 19 18 17 16 15
4 4 4 4 5 5 7 10 10 13 17 14 12 16 12 11 17 24 29 32 33 33 32 29 26 25 28 29 27 24 21 20 21 22 23 25 27 27 27 27 25 26 27 28 29 30 32 32 30 28 27 27 26 25 24 23 21 20 19 18 16 15 14
8 7 4 4 6 7 9 15 17 15 13 11 10 15 14 9 12 19 26 30 32 33 31 28 26 26 29 31 30 28 25 24 24 23 23 23 24 24 25 24 24 24 24 25 27 30 32 32 30 28 27 27 25 24 23 22 20 19 18 16 15 15 15
7 6 3 4 3 3 4 10 14 11 7 7 9 13 15 11 11 15 21 25 28 30 29 28 27 26 27 29 32 33 31 28 27 26 26 25 24 24 25 25 24 24 24 25 26 29 31 31 30 29 28 28 27 25 24 23 21 19 18 17 16 16 16
5 3 7 8 5 3 2 2 7 9 7 3 5 9 13 12 9 11 16 20 23 25 27 28 27 26 25 26 31 36 35 30 27 27 28 28 27 27 27 27 27 26 26 26 26 27 29 29 28 28 29 28 27 25 24 24 23 21 20 18 17 17 17
6 7 8 8 8 8 6 5 3 3 5 4 2 5 8 8 7 7 11 15 18 22 25 27 27 26 25 24 27 33 36 32 27 26 29 30 30 30 30 29 29 29 28 28 28 28 28 29 28 28 28 28 27 26 25 23 22 20 18 17 16 16 16
7 8 7 6 7 8 8 8 8 6 5 6 4 2 1 2 5 5 4 9 15 19 22 26 27 27 27 27 26 28 33 33 28 26 28 30 30 31 32 32 32 32 31 31 31 30 29 30 29 29 29 28 27 26 25 22 21 20 19 18 18 18 18
11 11 11 10 8 9 10 11 11 10 9 8 8 7 4 1 4 7 4 5 12 16 18 22 26 27 28 29 28 25 29 32 29 27 28 30 30 30 31 31 31 32 33 32 31 31 30 30 30 30 29 28 27 25 24 23 22 22 22 21 22 22 22
17 17 16 16 14 13 13 13 13 13 13 11 10 10 7 3 3 8 8 5 9 14 15 19 23 26 27 28 28 26 26 30 29 28 28 30 31 30 29 29 29 29 30 30 30 30 30 30 30 30 29 29 27 26 25 25 25 25 24 24 24 25 26
20 19 18 18 17 16 15 14 14 15 15 14 12 12 11 6 4 9 12 8 8 12 14 16 20 24 25 27 27 27 24 25 27 28 28 29 30 30 28 28 28 27 28 29 28 28 28 28 29 29 29 28 28 27 27 27 26 25 24 23 23 24 25
21 21 19 18 18 18 17 16 16 16 17 16 16 16 14 11 7 9 13 12 9 12 14 16 18 21 23 24 25 26 24 22 24 26 28 28 29 29 28 27 27 27 27 28 28 28 28 28 28 28 28 28 27 27 26 25 24 23 23 23 24 24 25
Wind_Direction
213 216 223 223 220 217 218 213 210 217 220 216 217 241 244 232 237 239 224 225 238 247 250 249 243 240 237 234 235 237 240 243 250 256 252 246 239 231 226 222 219 218 215 214 214 213 213 214 215 217 215 214 214 215 216 216 214 213 212 212 213 213 213
211 212 218 221 223 221 212 210 214 216 217 222 223 227 237 219 230 248 223 224 230 231 241 242 237 239 236 232 234 238 240 243 247 250 249 244 237 231 227 223 220 219 217 217 216 213 213 215 217 218 218 216 216 217 217 217 216 215 214 213 213 213 214
210 211 216 220 223 226 222 220 220 210 200 213 216 214 223 216 231 280 232 222 226 226 231 233 232 236 235 231 232 236 239 240 241 245 247 243 238 234 231 227 225 223 220 219 220 217 215 216 218 219 220 220 219 218 218 217 217 216 216 215 214 213 214
213 211 215 217 217 221 225 227 224 214 212 214 209 209 216 212 213 260 251 229 229 234 236 234 234 238 236 233 233 236 238 237 237 241 245 243 239 237 233 230 228 226 223 222 223 222 219 218 219 219 220 221 220 219 218 217 216 216 215 215 214 214 214
220 212 210 214 215 213 216 218 214 211 217 217 213 215 217 220 226 210 231 252 241 241 242 239 236 237 238 237 236 236 236 235 235 237 242 243 240 237 235 233 230 227 226 226 226 225 222 220 221 221 221 222 222 220 218 216 216 216 216 215 214 213 213
224 211 203 209 214 212 211 213 211 213 215 208 204 218 218 222 232 235 239 282 261 248 245 242 237 230 233 237 236 236 236 235 236 235 238 242 241 238 237 237 235 231 228 227 228 229 224 221 221 222 222 223 223 221 218 215 215 218 219 218 215 214 213
228 209 196 200 207 210 211 210 211 216 218 212 208 212 213 215 225 240 251 280 268 253 241 237 234 225 226 230 233 236 235 235 237 236 237 240 242 241 237 235 238 236 232 231 232 233 229 224 221 221 223 223 223 222 218 215 215 217 220 220 218 216 214
234 214 201 205 213 214 213 210 208 212 217 219 221 224 224 213 214 227 238 267 263 256 245 235 233 228 228 227 230 236 237 238 238 236 237 239 241 242 236 231 232 229 228 234 236 236 234 229 223 222 223 223 223 223 219 216 214 215 218 220 220 218 216
241 224 216 226 232 221 214 209 204 209 215 221 228 231 230 224 221 217 208 244 254 252 246 240 231 226 230 229 231 236 238 238 238 236 237 236 237 240 237 231 226 220 223 231 235 235 235 232 227 224 223 222 222 221 219 216 214 213 215 217 219 220 218
215 224 215 227 239 228 217 206 198 204 211 216 227 232 228 228 227 217 210 235 248 246 244 246 231 214 219 224 227 229 230 233 236 237 237 235 235 236 235 230 222 217 221 226 228 230 232 232 230 226 223 220 219 218 216 215 214 214 215 214 216 218 219
223 233 238 265 285 270 246 215 198 199 207 214 221 227 228 229 228 221 223 238 251 252 252 254 251 242 243 251 246 232 224 225 228 235 246 248 240 234 232 227 219 216 220 222 225 229 231 230 228 226 223 219 217 215 211 209 209 211 214 215 216 217 219
237 245 252 260 281 281 267 254 224 207 209 217 219 221 226 229 230 230 233 240 250 256 256 258 262 261 261 264 262 254 245 239 238 247 261 261 242 231 228 223 217 218 219 220 225 228 229 229 224 221 220 217 216 213 207 203 202 205 209 212 214 216 219
242 245 255 260 269 272 266 275 269 237 226 222 221 221 221 225 232 235 238 241 247 254 260 263 265 266 267 269 270 268 262 254 252 258 263 255 232 225 225 220 215 217 220 221 222 221 223 227 221 217 216 215 215 211 206 204 203 203 206 209 212 215 218
245 241 253 256 253 256 258 275 287 268 250 235 226 223 220 224 234 239 242 246 248 253 261 265 266 268 270 273 275 272 263 257 260 264 258 241 222 218 220 216 212 214 218 222 222 220 223 226 220 215 214 214 213 210 207 207 206 205 207 210 213 216 218
250 231 232 228 232 244 250 268 284 279 265 247 232 224 221 225 232 236 240 246 250 253 259 262 265 268 271 274 274 268 262 266 271 263 246 231 218 214 213 212 212 214 217 220 221 221 224 222 217 214 212 213 213 210 210 210 209 208 208 211 214 217 219
257 205 204 208 216 231 238 258 274 269 258 241 223 216 218 222 226 230 236 244 249 251 254 259 263 266 270 273 272 266 268 277 276 252 232 223 216 211 208 209 213 215 216 217 217 216 216 211 210 211 211 211 212 211 211 211 210 210 210 210 213 216 217
240 196 201 198 197 211 228 248 253 190 140 154 189 203 211 216 219 224 231 239 244 247 250 254 259 264 268 271 270 269 274 280 267 231 214 211 209 207 206 209 214 214 213 212 210 209 209 206 206 208 208 210 212 210 210 210 209 210 210 210 212 213 214
225 204 182 177 184 193 199 212 209 148 127 126 138 173 194 203 211 218 224 231 236 242 248 250 254 260 264 268 269 271 279 281 252 207 194 195 195 195 200 206 209 208 207 205 202 202 205 204 203 204 205 209 210 210 210 209 208 209 209 210 211 211 211
250 248 170 164 175 174 178 190 183 143 126 116 113 140 175 186 200 209 215 224 230 237 244 247 252 257 260 265 269 272 280 280 245 201 187 187 186 186 190 194 197 198 199 199 197 198 201 200 200 201 203 206 208 209 209 207 206 208 209 210 210 209 209
260 277 235 173 160 161 169 181 181 164 145 123 115 130 160 175 189 198 203 213 223 230 236 241 248 255 259 265 270 273 279 275 242 205 192 189 188 188 187 188 191 194 197 196 194 196 199 198 197 198 199 202 204 204 202 200 201 204 206 208 208 208 209
247 283 284 151 149 161 172 180 185 186 176 141 119 103 110 154 174 183 191 202 212 218 224 231 240 250 257 264 269 272 273 267 242 213 198 192 191 191 190 190 192 194 195 192 190 193 197 196 195 195 195 196 197 196 195 194 195 198 200 201 203 206 208
252 287 295 146 149 165 177 179 181 200 199 158 128 103 89 130 156 163 174 189 201 208 213 221 229 241 252 259 264 265 263 258 242 220 201 193 194 196 195 194 193 192 190 188 188 190 193 192 192 192 192 192 192 191 192 191 191 194 196 196 200 203 204
267 277 287 168 147 156 169 175 185 215 193 156 132 110 84 111 138 152 162 175 188 193 196 204 215 231 244 248 255 257 251 246 238 221 202 195 197 200 197 193 192 191 188 187 187 188 189 190 190 190 190 190 192 192 193 194 195 197 197 194 195 196 196
274 261 264 270 94 130 164 176 203 214 183 156 138 129 77 95 120 138 149 162 173 174 175 184 197 211 221 223 239 248 240 234 230 218 204 198 199 200 196 192 192 192 189 187 187 186 187 189 189 189 190 192 195 195 196 199 201 202 200 197 194 193 194
267 249 242 163 83 93 166 182 199 183 171 155 121 119 99 93 108 126 138 149 158 161 162 169 172 171 166 163 192 228 231 226 221 214 205 199 198 198 196 195 196 195 191 189 187 184 186 188 188 189 192 194 196 198 200 204 206 206 205 204 202 202 203
227 225 213 166 82 61 149 185 196 171 156 132 90 121 148 107 109 120 130 139 148 152 152 151 147 142 143 152 179 212 223 220 213 209 204 199 198 199 199 200 202 199 194 192 190 184 184 186 187 189 192 195 198 201 205 208 210 212 212 214 215 215 215
146 160 161 146 66 31 100 170 193 162 133 115 129 176 177 126 117 123 128 136 143 145 144 141 137 139 149 163 183 202 208 205 203 203 201 199 200 202 203 204 205 201 197 195 192 185 184 186 187 188 192 197 200 205 210 213 215 218 222 225 227 227 224
71 85 84 75 51 50 89 118 132 126 114 116 158 180 168 127 117 123 129 136 141 142 141 137 135 143 157 169 182 191 189 184 188 192 194 197 199 201 203 204 202 199 197 195 192 186 184 186 188 191 195 201 205 210 215 218 222 226 229 230 229 224 216
78 83 71 60 59 66 98 118 123 121 113 113 149 170 163 131 110 117 126 135 140 143 144 140 135 143 156 164 173 178 173 166 170 177 182 187 191 194 196 196 194 192 191 191 189 186 186 190 194 197 201 206 210 214 217 220 225 229 229 226 219 210 203
92 85 17 341 17 40 88 125 134 144 141 107 124 158 165 144 111 110 120 128 134 142 149 146 138 139 148 156 164 167 162 157 160 167 171 175 180 183 185 185 184 184 183 185 186 187 190 195 199 202 206 210 214 217 220 223 226 230 233 231 225 217 212
76 30 327 313 302 295 300 147 147 159 177 161 112 142 160 158 132 110 114 121 127 135 144 144 137 135 143 153 161 162 158 153 154 159 163 166 170 174 176 177 177 177 178 181 184 187 192 197 200 204 208 212 215 218 222 224 225 228 232 232 231 232 231
16 340 314 306 298 283 271 269 253 179 187 208 150 120 145 163 160 130 111 113 120 127 133 134 133 135 143 151 156 158 155 152 151 154 158 160 162 166 170 171 172 173 173 175 178 182 187 192 197 201 205 208 212 216 219 220 220 223 227 229 232 240 244
350 327 299 291 295 280 264 264 273 275 257 237 221 188 157 167 184 188 130 108 118 124 126 128 127 130 142 154 158 153 147 146 148 150 154 158 159 161 165 167 168 169 170 171 175 179 184 188 192 196 200 204 209 213 216 217 218 221 227 230 233 238 244
347 335 317 307 292 270 262 266 272 278 278 260 238 232 247 260 203 212 204 120 122 123 120 123 124 123 132 150 163 157 139 134 138 144 149 156 159 159 161 164 167 169 171 173 176 180 184 188 191 195 199 204 207 211 214 217 220 224 228 233 237 240 244
342 332 323 315 298 275 265 263 266 277 283 273 249 231 229 236 218 215 212 170 136 134 127 125 126 126 128 138 153 156 137 125 129 139 146 153 158 159 160 162 165 169 172 174 177 181 185 190 194 197 201 204 207 212 216 220 225 230 234 240 245 248 250
340 327 317 311 299 284 272 264 263 271 278 280 272 249 230 220 222 218 216 203 158 147 145 135 131 135 136 135 142 150 142 124 125 137 145 151 156 158 160 162 164 169 173 176 179 182 187 192 196 200 204 207 212 217 221 225 230 234 239 245 249 252 253
343 329 317 310 303 291 277 265 258 259 263 270 278 271 250 232 225 219 216 213 188 159 158 155 144 141 143 140 141 148 147 131 124 134 143 149 153 157 159 162 165 168 172 177 181 185 189 195 199 203 208 212 218 223 227 232 236 240 244 251 256 258 257
Height
3073 3076 3077 3080 3082 3082 3085 3088 3088 3087 3091 3097 3100 3099 3098 3101 3099 3089 3085 3086 3087 3089 3089 3090 3095 3098 3101 3105 3106 3108 3109 3110 3113 3114 3115 3117 3119 3124 3129 3132 3135 3137 3140 3142 3144 3147 3149 3151 3153 3154 3157 3159 3162 3165 3167 3170 3172 3174 3176 3178 3181 3183 3186
3069 3072 3073 3076 3078 3079 3081 3082 3082 3088 3095 3098 3098 3098 3096 3097 3093 3084 3081 3084 3086 3088 3085 3086 3092 3095 3098 3101 3103 3106 3107 3108 3110 3111 3112 3114 3116 3120 3125 3129 3133 3135 3137 3139 3141 3144 3146 3148 3150 3152 3155 3158 3161 3163 3166 3168 3170 3172 3174 3177 3179 3182 3184
3065 3068 3070 3072 3074 3077 3079 3079 3081 3086 3090 3089 3090 3093 3091 3091 3090 3083 3081 3081 3081 3082 3081 3083 3089 3091 3094 3099 3101 3103 3104 3105 3107 3108 3110 3112 3114 3117 3121 3125 3129 3131 3134 3136 3138 3141 3143 3146 3148 3151 3154 3156 3159 3161 3164 3166 3168 3170 3173 3175 3177 3179 3181
3062 3064 3066 3068 3070 3074 3077 3079 3080 3082 3082 3081 3083 3085 3084 3086 3087 3084 3081 3078 3076 3076 3079 3083 3086 3088 3092 3096 3098 3101 3102 3103 3105 3106 3108 3110 3111 3114 3117 3122 3125 3128 3132 3134 3136 3138 3141 3143 3146 3148 3151 3153 3156 3159 3161 3164 3166 3168 3171 3173 3175 3177 3179
3060 3060 3063 3065 3068 3071 3072 3074 3076 3077 3078 3078 3080 3082 3081 3083 3083 3082 3080 3076 3072 3074 3078 3081 3084 3086 3090 3093 3096 3098 3100 3102 3104 3105 3106 3108 3110 3112 3114 3118 3122 3126 3129 3131 3133 3135 3138 3141 3144 3146 3149 3151 3154 3157 3159 3161 3164 3166 3168 3170 3172 3174 3177
3056 3057 3060 3063 3065 3067 3068 3070 3072 3073 3075 3076 3078 3079 3078 3080 3080 3078 3078 3074 3070 3073 3077 3079 3083 3085 3087 3090 3093 3096 3098 3100 3102 3103 3105 3106 3108 3110 3113 3115 3118 3122 3125 3128 3130 3132 3135 3138 3141 3144 3146 3149 3151 3154 3156 3159 3161 3163 3165 3168 3170 3172 3175
3054 3055 3058 3060 3062 3063 3064 3066 3069 3072 3074 3073 3074 3073 3074 3077 3077 3077 3078 3072 3065 3070 3077 3078 3081 3084 3085 3088 3090 3093 3096 3097 3099 3102 3103 3104 3106 3108 3110 3112 3115 3118 3122 3125 3126 3128 3131 3135 3138 3141 3143 3146 3148 3151 3154 3156 3158 3161 3163 3166 3168 3171 3173
3053 3055 3058 3059 3060 3060 3061 3063 3066 3068 3070 3070 3070 3071 3072 3075 3074 3075 3079 3072 3060 3065 3075 3077 3080 3082 3083 3086 3088 3090 3093 3095 3097 3099 3101 3103 3104 3106 3108 3109 3112 3115 3118 3120 3122 3124 3128 3132 3136 3138 3141 3144 3146 3149 3151 3153 3156 3159 3161 3164 3166 3168 3171
3055 3055 3056 3056 3057 3057 3057 3059 3061 3063 3065 3068 3069 3070 3071 3071 3069 3071 3076 3068 3057 3062 3072 3074 3078 3081 3081 3083 3085 3087 3090 3092 3094 3096 3098 3101 3102 3104 3106 3107 3109 3111 3113 3116 3118 3121 3124 3128 3133 3136 3138 3141 3144 3146 3149 3151 3154 3157 3159 3162 3164 3166 3168
3052 3051 3051 3052 3053 3053 3053 3055 3057 3059 3062 3064 3065 3067 3068 3066 3064 3067 3068 3061 3056 3063 3070 3071 3076 3078 3079 3081 3083 3084 3086 3088 3090 3093 3095 3098 3099 3101 3103 3105 3106 3108 3110 3113 3115 3118 3121 3125 3129 3133 3136 3139 3141 3144 3147 3149 3152 3155 3157 3159 3161 3163 3166
3048 3047 3049 3051 3051 3051 3051 3052 3054 3056 3059 3059 3061 3063 3062 3060 3062 3063 3062 3059 3057 3061 3067 3070 3073 3076 3077 3079 3081 3082 3083 3084 3087 3089 3091 3094 3095 3098 3101 3103 3104 3106 3108 3110 3113 3115 3118 3122 3126 3130 3133 3136 3139 3142 3144 3147 3150 3152 3155 3157 3159 3161 3163
3047 3046 3047 3050 3051 3050 3050 3051 3051 3053 3054 3055 3056 3056 3056 3059 3061 3057 3058 3062 3060 3057 3062 3068 3071 3073 3074 3076 3078 3080 3081 3081 3083 3084 3086 3088 3089 3092 3096 3099 3101 3103 3105 3108 3111 3113 3116 3119 3123 3126 3130 3134 3137 3140 3142 3145 3147 3150 3152 3155 3157 3159 3161
3045 3045 3045 3048 3049 3049 3050 3050 3050 3049 3050 3050 3050 3050 3053 3057 3056 3053 3058 3063 3059 3057 3060 3064 3066 3068 3070 3072 3074 3075 3076 3077 3078 3079 3079 3081 3083 3086 3090 3094 3097 3100 3103 3106 3108 3110 3113 3116 3120 3123 3127 3131 3134 3137 3140 3143 3145 3148 3150 3152 3155 3157 3159
3042 3043 3044 3046 3047 3048 3049 3049 3048 3047 3046 3046 3047 3048 3052 3053 3052 3055 3060 3060 3058 3058 3059 3060 3061 3064 3065 3067 3069 3070 3070 3071 3072 3072 3072 3073 3076 3080 3085 3090 3094 3098 3101 3103 3106 3108 3110 3114 3117 3121 3124 3128 3131 3135 3137 3140 3143 3146 3148 3150 3152 3154 3157
3040 3041 3043 3043 3044 3046 3048 3048 3047 3045 3044 3045 3046 3048 3051 3051 3051 3055 3057 3056 3056 3058 3058 3057 3058 3059 3061 3063 3064 3065 3065 3065 3065 3065 3065 3066 3069 3074 3080 3086 3091 3095 3099 3101 3103 3105 3108 3111 3115 3118 3122 3126 3129 3132 3135 3138 3141 3144 3146 3148 3150 3152 3155
3038 3039 3040 3041 3043 3045 3046 3046 3045 3044 3043 3043 3044 3046 3046 3047 3049 3053 3054 3054 3054 3055 3055 3055 3055 3056 3058 3060 3060 3060 3060 3060 3060 3059 3060 3062 3066 3070 3076 3082 3087 3092 3096 3098 3101 3104 3106 3109 3112 3115 3119 3123 3127 3130 3133 3136 3139 3142 3144 3146 3148 3151 3153
3036 3036 3037 3038 3041 3044 3044 3044 3043 3043 3042 3041 3042 3042 3042 3043 3047 3050 3051 3051 3051 3051 3052 3052 3053 3054 3056 3057 3057 3057 3057 3057 3057 3056 3057 3060 3064 3069 3074 3079 3084 3089 3093 3096 3099 3102 3104 3107 3110 3114 3118 3121 3125 3128 3131 3134 3137 3139 3142 3144 3146 3148 3151
3034 3034 3035 3036 3038 3040 3040 3041 3043 3042 3040 3040 3040 3040 3039 3040 3044 3047 3047 3048 3048 3048 3048 3050 3051 3052 3054 3055 3055 3055 3054 3055 3055 3055 3057 3059 3063 3067 3071 3076 3082 3087 3091 3094 3098 3100 3103 3106 3109 3112 3116 3119 3123 3125 3128 3131 3134 3137 3139 3141 3143 3146 3148
3032 3031 3032 3033 3034 3035 3037 3039 3041 3041 3040 3039 3039 3040 3038 3038 3041 3043 3044 3045 3046 3046 3047 3048 3049 3051 3053 3053 3053 3054 3053 3053 3054 3055 3056 3059 3062 3066 3069 3074 3079 3084 3089 3092 3095 3098 3101 3104 3107 3111 3114 3117 3120 3123 3126 3129 3132 3134 3137 3139 3141 3144 3146
3032 3030 3029 3029 3030 3032 3034 3037 3039 3040 3039 3037 3037 3038 3037 3037 3039 3040 3041 3042 3043 3044 3045 3046 3048 3050 3051 3052 3052 3052 3052 3052 3053 3054 3056 3059 3062 3065 3068 3073 3078 3082 3087 3090 3094 3097 3100 3103 3106 3109 3112 3115 3118 3121 3125 3127 3130 3132 3134 3136 3139 3141 3143
3031 3029 3027 3026 3028 3030 3032 3034 3036 3037 3037 3036 3035 3036 3038 3037 3037 3038 3039 3040 3041 3042 3044 3045 3047 3049 3050 3050 3051 3051 3050 3051 3052 3054 3056 3059 3061 3064 3067 3071 3076 3080 3085 3088 3092 3095 3098 3102 3105 3108 3111 3114 3117 3120 3123 3125 3128 3130 3132 3134 3137 3139 3141
3029 3029 3026 3024 3026 3028 3029 3031 3033 3034 3035 3034 3033 3035 3037 3037 3036 3036 3037 3038 3040 3041 3043 3044 3046 3047 3048 3049 3049 3049 3049 3050 3051 3053 3055 3058 3060 3063 3066 3069 3073 3077 3081 3085 3089 3093 3097 3100 3103 3106 3109 3113 3116 3119 3121 3123 3126 3128 3130 3132 3134 3136 3139
3028 3027 3025 3023 3023 3025 3027 3030 3032 3032 3033 3033 3033 3034 3036 3036 3036 3036 3036 3037 3039 3040 3042 3043 3044 3046 3047 3048 3047 3047 3048 3049 3050 3052 3054 3057 3059 3062 3064 3068 3071 3075 3079 3083 3087 3091 3095 3098 3101 3105 3108 3111 3114 3117 3119 3121 3123 3126 3128 3131 3133 3135 3137
3026 3026 3025 3023 3022 3024 3025 3028 3030 3031 3032 3033 3033 3034 3035 3035 3034 3034 3034 3036 3038 3039 3041 3042 3043 3044 3046 3047 3047 3046 3047 3048 3049 3051 3053 3056 3058 3060 3063 3066 3069 3073 3077 3081 3085 3090 3093 3097 3100 3104 3107 3110 3113 3115 3117 3119 3121 3124 3126 3129 3131 3133 3135
3024 3024 3024 3022 3022 3022 3024 3026 3028 3029 3030 3032 3033 3035 3036 3034 3033 3032 3032 3034 3036 3038 3039 3041 3043 3044 3046 3047 3047 3046 3046 3047 3048 3050 3052 3055 3057 3060 3062 3065 3069 3072 3076 3080 3084 3088 3092 3096 3099 3102 3106 3109 3111 3113 3115 3117 3120 3122 3125 3127 3130 3132 3133
3023 3023 3022 3022 3022 3021 3022 3024 3026 3026 3026 3030 3034 3035 3035 3033 3032 3031 3031 3032 3035 3036 3038 3041 3043 3044 3045 3046 3046 3045 3045 3046 3048 3049 3051 3054 3056 3059 3062 3065 3068 3071 3075 3079 3083 3087 3091 3095 3098 3101 3104 3107 3109 3112 3114 3116 3119 3121 3123 3126 3128 3130 3132
3022 3021 3022 3023 3023 3022 3021 3023 3025 3025 3024 3027 3031 3032 3033 3032 3031 3029 3029 3030 3032 3035 3037 3039 3042 3043 3043 3044 3044 3044 3045 3046 3047 3048 3050 3052 3055 3058 3061 3063 3067 3070 3074 3078 3082 3086 3090 3093 3097 3100 3102 3105 3108 3110 3113 3115 3118 3120 3122 3124 3126 3128 3130
3021 3022 3023 3024 3024 3023 3022 3023 3025 3025 3024 3025 3028 3030 3031 3032 3030 3028 3027 3028 3029 3032 3035 3037 3039 3040 3041 3041 3042 3043 3045 3046 3047 3048 3050 3051 3054 3056 3059 3062 3065 3069 3073 3077 3081 3085 3089 3092 3096 3098 3101 3104 3107 3109 3112 3114 3116 3118 3120 3122 3123 3125 3127
3021 3022 3024 3024 3024 3024 3023 3023 3024 3025 3025 3025 3027 3029 3030 3031 3030 3028 3027 3027 3028 3030 3032 3034 3035 3037 3038 3039 3040 3042 3044 3046 3047 3049 3050 3051 3053 3055 3058 3061 3064 3067 3071 3075 3079 3083 3087 3091 3094 3097 3100 3103 3105 3107 3110 3112 3115 3117 3118 3120 3122 3123 3125
3022 3023 3023 3024 3023 3024 3024 3023 3023 3025 3027 3027 3026 3027 3029 3030 3029 3028 3027 3026 3027 3028 3030 3031 3033 3034 3036 3037 3038 3040 3043 3045 3047 3049 3050 3051 3053 3055 3058 3060 3063 3066 3070 3073 3077 3081 3085 3089 3092 3095 3098 3101 3103 3105 3107 3110 3113 3115 3116 3118 3120 3122 3123
3023 3024 3023 3023 3023 3023 3024 3024 3023 3024 3026 3027 3027 3027 3027 3028 3028 3028 3027 3026 3026 3027 3028 3029 3030 3032 3035 3037 3037 3038 3041 3044 3048 3050 3051 3052 3054 3056 3058 3060 3063 3066 3069 3072 3075 3079 3083 3086 3089 3092 3096 3098 3100 3103 3105 3107 3110 3112 3114 3115 3117 3119 3121
3024 3023 3023 3023 3022 3022 3023 3024 3023 3023 3025 3026 3026 3026 3026 3028 3028 3028 3027 3026 3026 3027 3028 3028 3028 3030 3033 3036 3038 3038 3038 3043 3047 3050 3051 3053 3054 3056 3058 3060 3062 3065 3068 3071 3075 3078 3081 3084 3087 3090 3093 3095 3098 3101 3103 3105 3108 3110 3111 3113 3115 3116 3118
3024 3023 3022 3022 3022 3021 3021 3022 3022 3022 3024 3025 3025 3026 3026 3027 3028 3029 3028 3027 3026 3027 3028 3028 3028 3029 3031 3034 3038 3038 3037 3040 3045 3049 3051 3053 3054 3056 3058 3060 3062 3065 3068 3071 3074 3077 3080 3083 3085 3087 3090 3093 3095 3098 3101 3103 3106 3108 3110 3111 3113 3114 3116
3023 3022 3022 3022 3021 3020 3020 3020 3020 3021 3022 3022 3023 3024 3025 3026 3027 3028 3028 3027 3027 3027 3028 3028 3028 3030 3031 3034 3038 3040 3038 3038 3042 3046 3049 3051 3053 3055 3058 3061 3063 3065 3068 3070 3074 3077 3079 3081 3084 3086 3088 3091 3094 3096 3099 3101 3104 3106 3108 3110 3111 3113 3114
3022 3021 3020 3020 3020 3019 3019 3019 3019 3020 3019 3019 3020 3022 3024 3025 3026 3027 3027 3027 3027 3027 3028 3028 3029 3031 3033 3035 3039 3042 3040 3038 3040 3044 3046 3048 3051 3054 3056 3059 3062 3064 3067 3069 3072 3075 3078 3080 3082 3084 3087 3089 3092 3094 3097 3099 3101 3103 3105 3107 3108 3110 3111
3022 3020 3018 3018 3018 3018 3018 3018 3019 3018 3018 3017 3018 3019 3021 3023 3025 3026 3027 3027 3027 3027 3028 3029 3029 3030 3033 3035 3038 3041 3042 3040 3040 3042 3045 3047 3049 3052 3054 3057 3060 3062 3065 3068 3070 3073 3076 3078 3080 3083 3085 3088 3090 3092 3095 3097 3099 3101 3102 3104 3105 3106 3108
3020 3018 3016 3015 3015 3015 3016 3017 3017 3017 3017 3017 3016 3016 3017 3020 3023 3026 3026 3026 3026 3026 3028 3029 3029 3029 3032 3034 3036 3040 3042 3041 3040 3041 3043 3045 3047 3050 3052 3055 3058 3061 3063 3065 3068 3071 3073 3076 3078 3081 3083 3086 3088 3091 3093 3094 3096 3097 3099 3100 3101 3103 3104